Volver al catálogo

OPS 4682 DEB

ActivoPO
NORAD 38454·DEBRIS·🇺🇸 United States

Lanzado Apr 3, 1965 desde Vandenberg Space Force Base

Loading…

Próximos Pases (próximas 24 horas)

TLE

ActualizadoSource: Space-Track

Época: Sep 12, 2026, 18:40 UTC

1 38454U 65027FK  26255.77779690  .00000345  00000-0  11973-2 0  9991
2 38454  90.2496   9.0242 0033073 347.7129  12.3180 12.95349701593948

Sigue OPS 4682 DEB en tiempo real con AllMySat

Download on the App Store